Time,TemperatureF,DewpointF,PressureIn,WindDirection,WindDirectionDegrees,WindSpeedMPH,WindSpeedGustMPH,Humidity,HourlyPrecipIn,Conditions,Clouds,dailyrainin,SoftwareType,DateUTC
2013-03-09 00:04:00,31.0,20.6,29.84,NW,315,0.0,4.0,65,0.00,,,0.00,Weather View 32 v70,2013-03-09 05:04:00,
2013-03-09 00:14:00,30.0,20.0,29.84,SW,225,0.0,4.0,66,0.00,,,0.00,Weather View 32 v70,2013-03-09 05:14:00,
2013-03-09 00:19:00,30.0,19.7,29.84,NE,45,0.0,5.0,65,0.00,,,0.00,Weather View 32 v70,2013-03-09 05:19:00,
2013-03-09 00:20:00,30.0,19.7,29.84,NE,45,0.0,5.0,65,0.00,,,0.00,Weather View 32 v70,2013-03-09 05:20:00,
2013-03-09 00:24:00,30.0,20.0,29.84,NE,45,0.0,5.0,66,0.00,,,0.00,Weather View 32 v70,2013-03-09 05:24:00,
2013-03-09 00:29:00,30.0,19.7,29.84,South,180,0.0,5.0,65,0.00,,,0.00,Weather View 32 v70,2013-03-09 05:29:00,
2013-03-09 00:34:00,30.0,19.7,29.84,SSW,202,0.0,5.0,65,0.00,,,0.00,Weather View 32 v70,2013-03-09 05:34:00,
2013-03-09 00:39:00,30.0,19.3,29.84,SSW,202,0.0,5.0,64,0.00,,,0.00,Weather View 32 v70,2013-03-09 05:39:00,
2013-03-09 00:44:00,30.0,19.3,29.84,SW,225,0.0,5.0,64,0.00,,,0.00,Weather View 32 v70,2013-03-09 05:44:00,
2013-03-09 00:49:00,30.0,19.7,29.84,SW,225,0.0,5.0,65,0.00,,,0.00,Weather View 32 v70,2013-03-09 05:49:00,
2013-03-09 00:54:00,30.0,19.3,29.85,North,360,0.0,5.0,64,0.00,,,0.00,Weather View 32 v70,2013-03-09 05:54:00,
2013-03-09 00:59:00,30.0,19.3,29.85,North,360,0.0,5.0,64,0.00,,,0.00,Weather View 32 v70,2013-03-09 05:59:00,
2013-03-09 01:04:00,30.0,19.3,29.85,West,270,1.0,5.0,64,0.00,,,0.00,Weather View 32 v70,2013-03-09 06:04:00,
2013-03-09 01:09:00,30.0,19.7,29.85,West,270,0.0,5.0,65,0.00,,,0.00,Weather View 32 v70,2013-03-09 06:09:00,
2013-03-09 01:14:00,29.0,18.3,29.85,WSW,247,1.0,5.0,64,0.00,,,0.00,Weather View 32 v70,2013-03-09 06:14:00,
2013-03-09 01:19:00,30.0,19.7,29.85,SE,135,0.0,5.0,65,0.00,,,0.00,Weather View 32 v70,2013-03-09 06:19:00,
2013-03-09 01:24:00,30.0,19.7,29.85,NE,45,0.0,3.0,65,0.00,,,0.00,Weather View 32 v70,2013-03-09 06:24:00,
2013-03-09 01:29:00,29.0,18.7,29.85,NW,315,2.0,3.0,65,0.00,,,0.00,Weather View 32 v70,2013-03-09 06:29:00,
2013-03-09 01:34:00,29.0,18.7,29.85,NW,315,1.0,3.0,65,0.00,,,0.00,Weather View 32 v70,2013-03-09 06:34:00,
2013-03-09 01:39:00,29.0,19.1,29.85,NW,315,0.0,3.0,66,0.00,,,0.00,Weather View 32 v70,2013-03-09 06:39:00,
2013-03-09 01:44:00,29.0,19.4,29.85,West,270,0.0,3.0,67,0.00,,,0.00,Weather View 32 v70,2013-03-09 06:44:00,
2013-03-09 01:49:00,29.0,19.8,29.85,West,270,0.0,3.0,68,0.00,,,0.00,Weather View 32 v70,2013-03-09 06:49:00,
2013-03-09 01:54:00,28.0,18.8,29.85,SE,135,0.0,5.0,68,0.00,,,0.00,Weather View 32 v70,2013-03-09 06:54:00,
2013-03-09 01:59:00,28.0,19.1,29.85,West,270,1.0,5.0,69,0.00,,,0.00,Weather View 32 v70,2013-03-09 06:59:00,
2013-03-09 02:04:00,28.0,19.1,29.85,West,270,1.0,5.0,69,0.00,,,0.00,Weather View 32 v70,2013-03-09 07:04:00,
2013-03-09 02:09:00,28.0,19.5,29.85,NW,315,0.0,5.0,70,0.00,,,0.00,Weather View 32 v70,2013-03-09 07:09:00,
2013-03-09 02:14:00,28.0,19.8,29.85,West,270,0.0,5.0,71,0.00,,,0.00,Weather View 32 v70,2013-03-09 07:14:00,
2013-03-09 02:19:00,28.0,19.8,29.85,West,270,0.0,5.0,71,0.00,,,0.00,Weather View 32 v70,2013-03-09 07:19:00,
2013-03-09 02:24:00,28.0,20.1,29.85,East,90,0.0,6.0,72,0.00,,,0.00,Weather View 32 v70,2013-03-09 07:24:00,
2013-03-09 02:29:00,28.0,20.1,29.85,East,90,0.0,6.0,72,0.00,,,0.00,Weather View 32 v70,2013-03-09 07:29:00,
2013-03-09 02:34:00,27.0,19.2,29.85,NE,45,0.0,6.0,72,0.00,,,0.00,Weather View 32 v70,2013-03-09 07:34:00,
2013-03-09 02:39:00,27.0,19.2,29.85,North,360,1.0,6.0,72,0.00,,,0.00,Weather View 32 v70,2013-03-09 07:39:00,
2013-03-09 02:44:00,27.0,19.2,29.84,North,360,0.0,6.0,72,0.00,,,0.00,Weather View 32 v70,2013-03-09 07:44:00,
2013-03-09 02:49:00,27.0,19.5,29.84,North,360,0.0,6.0,73,0.00,,,0.00,Weather View 32 v70,2013-03-09 07:49:00,
2013-03-09 02:54:00,27.0,19.8,29.85,North,360,1.0,6.0,74,0.00,,,0.00,Weather View 32 v70,2013-03-09 07:54:00,
2013-03-09 02:59:00,27.0,19.8,29.85,North,360,0.0,6.0,74,0.00,,,0.00,Weather View 32 v70,2013-03-09 07:59:00,
2013-03-09 03:04:00,27.0,19.5,29.85,NW,315,0.0,6.0,73,0.00,,,0.00,Weather View 32 v70,2013-03-09 08:04:00,
2013-03-09 03:09:00,27.0,20.1,29.85,NW,315,0.0,6.0,75,0.00,,,0.00,Weather View 32 v70,2013-03-09 08:09:00,
2013-03-09 03:14:00,27.0,20.4,29.85,NW,315,0.0,6.0,76,0.00,,,0.00,Weather View 32 v70,2013-03-09 08:14:00,
2013-03-09 03:19:00,26.0,19.8,29.85,NW,315,0.0,6.0,77,0.00,,,0.00,Weather View 32 v70,2013-03-09 08:19:00,
2013-03-09 03:24:00,26.0,19.8,29.85,NW,315,0.0,3.0,77,0.00,,,0.00,Weather View 32 v70,2013-03-09 08:24:00,
2013-03-09 03:29:00,26.0,19.8,29.85,West,270,0.0,3.0,77,0.00,,,0.00,Weather View 32 v70,2013-03-09 08:29:00,
2013-03-09 03:34:00,26.0,19.8,29.85,West,270,0.0,3.0,77,0.00,,,0.00,Weather View 32 v70,2013-03-09 08:34:00,
2013-03-09 03:39:00,26.0,20.1,29.85,West,270,0.0,3.0,78,0.00,,,0.00,Weather View 32 v70,2013-03-09 08:39:00,
2013-03-09 03:44:00,26.0,20.4,29.86,West,270,1.0,3.0,79,0.00,,,0.00,Weather View 32 v70,2013-03-09 08:44:00,
2013-03-09 03:49:00,26.0,20.4,29.86,NW,315,1.0,3.0,79,0.00,,,0.00,Weather View 32 v70,2013-03-09 08:49:00,
2013-03-09 03:54:00,26.0,20.1,29.86,North,360,0.0,4.0,78,0.00,,,0.00,Weather View 32 v70,2013-03-09 08:54:00,
2013-03-09 03:59:00,26.0,20.4,29.86,North,360,0.0,4.0,79,0.00,,,0.00,Weather View 32 v70,2013-03-09 08:59:00,
2013-03-09 04:04:00,26.0,20.4,29.86,West,270,2.0,4.0,79,0.00,,,0.00,Weather View 32 v70,2013-03-09 09:04:00,
2013-03-09 04:09:00,26.0,20.7,29.86,West,270,0.0,4.0,80,0.00,,,0.00,Weather View 32 v70,2013-03-09 09:09:00,
2013-03-09 04:14:00,26.0,20.7,29.87,West,270,0.0,4.0,80,0.00,,,0.00,Weather View 32 v70,2013-03-09 09:14:00,
2013-03-09 04:19:00,26.0,20.7,29.87,NE,45,1.0,4.0,80,0.00,,,0.00,Weather View 32 v70,2013-03-09 09:19:00,
2013-03-09 04:24:00,25.0,20.0,29.87,NE,45,0.0,4.0,81,0.00,,,0.00,Weather View 32 v70,2013-03-09 09:24:00,
2013-03-09 04:29:00,25.0,20.0,29.87,NE,45,0.0,4.0,81,0.00,,,0.00,Weather View 32 v70,2013-03-09 09:29:00,
2013-03-09 04:34:00,25.0,20.0,29.87,NE,45,0.0,4.0,81,0.00,,,0.00,Weather View 32 v70,2013-03-09 09:34:00,
2013-03-09 04:39:00,25.0,20.0,29.87,NE,45,0.0,4.0,81,0.00,,,0.00,Weather View 32 v70,2013-03-09 09:39:00,
2013-03-09 04:44:00,25.0,20.0,29.88,NE,45,0.0,4.0,81,0.00,,,0.00,Weather View 32 v70,2013-03-09 09:44:00,
2013-03-09 04:49:00,25.0,20.3,29.88,NE,45,1.0,4.0,82,0.00,,,0.00,Weather View 32 v70,2013-03-09 09:49:00,
2013-03-09 04:54:00,25.0,20.0,29.88,NE,45,0.0,2.0,81,0.00,,,0.00,Weather View 32 v70,2013-03-09 09:54:00,
2013-03-09 04:59:00,24.0,19.3,29.88,NE,45,0.0,2.0,82,0.00,,,0.00,Weather View 32 v70,2013-03-09 09:59:00,
2013-03-09 05:04:00,24.0,19.6,29.90,NE,45,0.0,2.0,83,0.00,,,0.00,Weather View 32 v70,2013-03-09 10:04:00,
2013-03-09 05:09:00,24.0,19.6,29.90,NE,45,0.0,2.0,83,0.00,,,0.00,Weather View 32 v70,2013-03-09 10:09:00,
2013-03-09 05:14:00,24.0,19.9,29.90,North,360,2.0,2.0,84,0.00,,,0.00,Weather View 32 v70,2013-03-09 10:14:00,
2013-03-09 05:19:00,24.0,19.9,29.90,NW,315,1.0,2.0,84,0.00,,,0.00,Weather View 32 v70,2013-03-09 10:19:00,
2013-03-09 05:24:00,24.0,19.6,29.90,NW,315,0.0,2.0,83,0.00,,,0.00,Weather View 32 v70,2013-03-09 10:24:00,
2013-03-09 05:34:00,24.0,20.1,29.90,NW,315,0.0,2.0,85,0.00,,,0.00,Weather View 32 v70,2013-03-09 10:34:00,
2013-03-09 05:39:00,24.0,20.4,29.90,NW,315,0.0,2.0,86,0.00,,,0.00,Weather View 32 v70,2013-03-09 10:39:00,
2013-03-09 05:44:00,24.0,20.4,29.90,NW,315,0.0,2.0,86,0.00,,,0.00,Weather View 32 v70,2013-03-09 10:44:00,
2013-03-09 05:49:00,23.0,19.4,29.90,North,360,2.0,3.0,86,0.00,,,0.00,Weather View 32 v70,2013-03-09 10:49:00,
2013-03-09 05:54:00,24.0,20.4,29.90,NW,315,1.0,3.0,86,0.00,,,0.00,Weather View 32 v70,2013-03-09 10:54:00,
2013-03-09 05:59:00,24.0,20.1,29.90,NW,315,1.0,3.0,85,0.00,,,0.00,Weather View 32 v70,2013-03-09 10:59:00,
2013-03-09 06:04:00,24.0,20.1,29.90,NW,315,0.0,3.0,85,0.00,,,0.00,Weather View 32 v70,2013-03-09 11:04:00,
2013-03-09 06:09:00,24.0,19.9,29.90,NW,315,1.0,3.0,84,0.00,,,0.00,Weather View 32 v70,2013-03-09 11:09:00,
2013-03-09 06:19:00,24.0,20.1,29.91,NW,315,0.0,3.0,85,0.00,,,0.00,Weather View 32 v70,2013-03-09 11:19:00,
2013-03-09 06:24:00,24.0,20.1,29.91,NW,315,0.0,3.0,85,0.00,,,0.00,Weather View 32 v70,2013-03-09 11:24:00,
2013-03-09 06:29:00,24.0,20.1,29.91,NW,315,0.0,3.0,85,0.00,,,0.00,Weather View 32 v70,2013-03-09 11:29:00,
2013-03-09 06:34:00,24.0,19.6,29.91,NW,315,1.0,3.0,83,0.00,,,0.00,Weather View 32 v70,2013-03-09 11:34:00,
2013-03-09 06:39:00,24.0,19.3,29.91,NW,315,0.0,3.0,82,0.00,,,0.00,Weather View 32 v70,2013-03-09 11:39:00,
2013-03-09 06:44:00,25.0,20.0,29.91,NW,315,0.0,3.0,81,0.00,,,0.00,Weather View 32 v70,2013-03-09 11:44:00,
2013-03-09 06:49:00,25.0,20.0,29.91,NW,315,0.0,3.0,81,0.00,,,0.00,Weather View 32 v70,2013-03-09 11:49:00,
2013-03-09 06:54:00,25.0,19.7,29.92,NW,315,0.0,3.0,80,0.00,,,0.00,Weather View 32 v70,2013-03-09 11:54:00,
2013-03-09 07:04:00,26.0,20.4,29.92,SW,225,0.0,3.0,79,0.00,,,0.00,Weather View 32 v70,2013-03-09 12:04:00,
2013-03-09 07:09:00,26.0,20.1,29.92,SW,225,0.0,3.0,78,0.00,,,0.00,Weather View 32 v70,2013-03-09 12:09:00,
2013-03-09 07:14:00,27.0,20.8,29.92,SW,225,1.0,3.0,77,0.00,,,0.00,Weather View 32 v70,2013-03-09 12:14:00,
2013-03-09 07:19:00,27.0,20.4,29.92,SW,225,1.0,3.0,76,0.00,,,0.00,Weather View 32 v70,2013-03-09 12:19:00,
2013-03-09 07:24:00,28.0,21.1,29.92,West,270,2.0,3.0,75,0.00,,,0.00,Weather View 32 v70,2013-03-09 12:24:00,
2013-03-09 07:29:00,29.0,21.4,29.92,West,270,0.0,7.0,73,0.00,,,0.00,Weather View 32 v70,2013-03-09 12:29:00,
2013-03-09 07:34:00,30.0,21.7,29.91,WSW,247,0.0,7.0,71,0.00,,,0.00,Weather View 32 v70,2013-03-09 12:34:00,
2013-03-09 07:39:00,31.0,21.7,29.91,NW,315,2.0,7.0,68,0.00,,,0.00,Weather View 32 v70,2013-03-09 12:39:00,
2013-03-09 07:44:00,32.0,22.3,29.90,South,180,1.0,7.0,67,0.00,,,0.00,Weather View 32 v70,2013-03-09 12:44:00,
2013-03-09 07:54:00,34.0,23.1,29.90,SW,225,0.0,7.0,64,0.00,,,0.00,Weather View 32 v70,2013-03-09 12:54:00,
2013-03-09 07:59:00,35.0,23.3,29.90,North,360,1.0,7.0,62,0.00,,,0.00,Weather View 32 v70,2013-03-09 12:59:00,
2013-03-09 08:04:00,36.0,22.6,29.90,East,90,1.0,7.0,58,0.00,,,0.00,Weather View 32 v70,2013-03-09 13:04:00,
2013-03-09 08:09:00,36.0,22.2,29.90,East,90,2.0,7.0,57,0.00,,,0.00,Weather View 32 v70,2013-03-09 13:09:00,
2013-03-09 08:14:00,37.0,22.3,29.90,East,90,0.0,7.0,55,0.00,,,0.00,Weather View 32 v70,2013-03-09 13:14:00,
2013-03-09 08:19:00,38.0,22.8,29.90,East,90,0.0,7.0,54,0.00,,,0.00,Weather View 32 v70,2013-03-09 13:19:00,
2013-03-09 08:25:00,39.0,22.8,29.89,West,270,2.0,7.0,52,0.01,,,0.01,Weather View 32 v70,2013-03-09 13:25:00,
2013-03-09 08:34:00,40.0,22.4,29.89,NW,315,0.0,6.0,49,0.01,,,0.01,Weather View 32 v70,2013-03-09 13:34:00,
2013-03-09 08:44:00,41.0,22.8,29.89,North,360,0.0,6.0,48,0.02,,,0.02,Weather View 32 v70,2013-03-09 13:44:00,
2013-03-09 08:49:00,41.0,22.3,29.89,SE,135,3.0,6.0,47,0.03,,,0.03,Weather View 32 v70,2013-03-09 13:49:00,
2013-03-09 08:54:00,41.0,22.8,29.89,NW,315,4.0,6.0,48,0.03,,,0.03,Weather View 32 v70,2013-03-09 13:54:00,
2013-03-09 08:59:00,40.0,21.4,29.89,SE,135,2.0,6.0,47,0.04,,,0.04,Weather View 32 v70,2013-03-09 13:59:00,
2013-03-09 09:04:00,40.0,21.9,29.90,East,90,0.0,6.0,48,0.04,,,0.04,Weather View 32 v70,2013-03-09 14:04:00,
2013-03-09 09:09:00,41.0,22.3,29.90,East,90,1.0,6.0,47,0.05,,,0.05,Weather View 32 v70,2013-03-09 14:09:00,
2013-03-09 09:14:00,42.0,20.0,29.89,SE,135,0.0,6.0,41,0.05,,,0.05,Weather View 32 v70,2013-03-09 14:14:00,
2013-03-09 09:19:00,43.0,20.9,29.89,ESE,112,5.0,7.0,41,0.06,,,0.06,Weather View 32 v70,2013-03-09 14:19:00,
2013-03-09 09:25:00,44.0,22.3,29.89,SW,225,0.0,7.0,42,0.06,,,0.07,Weather View 32 v70,2013-03-09 14:25:00,
2013-03-09 09:34:00,45.0,20.3,29.88,SE,135,0.0,7.0,37,0.09,,,0.10,Weather View 32 v70,2013-03-09 14:34:00,
2013-03-09 09:39:00,45.0,20.9,29.88,East,90,3.0,7.0,38,0.10,,,0.11,Weather View 32 v70,2013-03-09 14:39:00,
2013-03-09 09:44:00,45.0,19.6,29.88,SE,135,4.0,7.0,36,0.11,,,0.13,Weather View 32 v70,2013-03-09 14:44:00,
2013-03-09 09:54:00,44.0,19.4,29.88,East,90,2.0,7.0,37,0.13,,,0.16,Weather View 32 v70,2013-03-09 14:54:00,
2013-03-09 09:59:00,44.0,18.1,29.88,SE,135,4.0,7.0,35,0.13,,,0.17,Weather View 32 v70,2013-03-09 14:59:00,
2013-03-09 10:04:00,45.0,17.6,29.88,East,90,3.0,7.0,33,0.14,,,0.18,Weather View 32 v70,2013-03-09 15:04:00,
2013-03-09 10:14:00,47.0,18.6,29.88,East,90,3.0,7.0,32,0.17,,,0.22,Weather View 32 v70,2013-03-09 15:14:00,
2013-03-09 10:19:00,46.0,18.5,29.88,SE,135,3.0,7.0,33,0.16,,,0.22,Weather View 32 v70,2013-03-09 15:19:00,
2013-03-09 10:24:00,46.0,17.7,29.88,East,90,5.0,7.0,32,0.16,,,0.23,Weather View 32 v70,2013-03-09 15:24:00,
2013-03-09 10:29:00,47.0,18.6,29.88,ESE,112,4.0,7.0,32,0.16,,,0.24,Weather View 32 v70,2013-03-09 15:29:00,
2013-03-09 10:39:00,46.0,18.5,29.88,SE,135,3.0,7.0,33,0.15,,,0.26,Weather View 32 v70,2013-03-09 15:39:00,
2013-03-09 10:44:00,46.0,17.0,29.89,SE,135,7.0,9.0,31,0.15,,,0.28,Weather View 32 v70,2013-03-09 15:44:00,
2013-03-09 10:49:00,46.0,17.7,29.89,SE,135,6.0,9.0,32,0.14,,,0.29,Weather View 32 v70,2013-03-09 15:49:00,
2013-03-09 10:59:00,47.0,17.9,29.89,South,180,6.0,9.0,31,0.13,,,0.30,Weather View 32 v70,2013-03-09 15:59:00,
2013-03-09 11:04:00,47.0,18.6,29.88,NE,45,3.0,9.0,32,0.13,,,0.31,Weather View 32 v70,2013-03-09 16:04:00,
2013-03-09 11:09:00,49.0,18.9,29.88,NE,45,2.0,9.0,30,0.12,,,0.32,Weather View 32 v70,2013-03-09 16:09:00,
2013-03-09 11:19:00,49.0,17.3,29.88,North,360,2.0,9.0,28,0.12,,,0.34,Weather View 32 v70,2013-03-09 16:19:00,
2013-03-09 11:24:00,50.0,18.9,29.87,SE,135,4.0,9.0,29,0.12,,,0.35,Weather View 32 v70,2013-03-09 16:24:00,
2013-03-09 11:29:00,50.0,18.9,29.87,NE,45,3.0,9.0,29,0.12,,,0.36,Weather View 32 v70,2013-03-09 16:29:00,
2013-03-09 11:34:00,50.0,18.9,29.87,East,90,0.0,9.0,29,0.12,,,0.37,Weather View 32 v70,2013-03-09 16:34:00,
2013-03-09 11:44:00,49.0,18.9,29.88,SE,135,0.0,9.0,30,0.11,,,0.39,Weather View 32 v70,2013-03-09 16:44:00,
2013-03-09 11:49:00,49.0,18.1,29.88,WNW,292,3.0,9.0,29,0.11,,,0.40,Weather View 32 v70,2013-03-09 16:49:00,
2013-03-09 11:54:00,49.0,18.1,29.88,SE,135,3.0,9.0,29,0.11,,,0.41,Weather View 32 v70,2013-03-09 16:54:00,
2013-03-09 12:04:00,50.0,17.3,29.87,North,360,3.0,9.0,27,0.11,,,0.42,Weather View 32 v70,2013-03-09 17:04:00,
2013-03-09 12:09:00,51.0,19.0,29.87,SE,135,4.0,9.0,28,0.10,,,0.42,Weather View 32 v70,2013-03-09 17:09:00,
2013-03-09 12:14:00,52.0,18.1,29.87,SE,135,4.0,9.0,26,0.09,,,0.42,Weather View 32 v70,2013-03-09 17:14:00,
2013-03-09 12:24:00,52.0,18.1,29.86,South,180,1.0,9.0,26,0.07,,,0.42,Weather View 32 v70,2013-03-09 17:24:00,
2013-03-09 12:29:00,53.0,19.9,29.86,SE,135,3.0,9.0,27,0.07,,,0.43,Weather View 32 v70,2013-03-09 17:29:00,
2013-03-09 12:34:00,53.0,17.1,29.85,South,180,0.0,9.0,24,0.07,,,0.44,Weather View 32 v70,2013-03-09 17:34:00,
2013-03-09 12:39:00,52.0,18.1,29.85,ESE,112,4.0,7.0,26,0.06,,,0.44,Weather View 32 v70,2013-03-09 17:39:00,
2013-03-09 12:49:00,52.0,17.2,29.85,SSW,202,0.0,7.0,25,0.07,,,0.47,Weather View 32 v70,2013-03-09 17:49:00,
2013-03-09 12:54:00,51.0,18.1,29.86,SE,135,3.0,7.0,27,0.07,,,0.48,Weather View 32 v70,2013-03-09 17:54:00,
2013-03-09 12:59:00,51.0,18.1,29.86,South,180,5.0,7.0,27,0.08,,,0.49,Weather View 32 v70,2013-03-09 17:59:00,
2013-03-09 13:09:00,51.0,21.4,29.86,South,180,1.0,7.0,31,0.08,,,0.50,Weather View 32 v70,2013-03-09 18:09:00,
2013-03-09 13:14:00,52.0,23.0,29.86,SW,225,3.0,7.0,32,0.09,,,0.51,Weather View 32 v70,2013-03-09 18:14:00,
2013-03-09 13:19:00,51.0,24.3,29.86,West,270,0.0,7.0,35,0.09,,,0.51,Weather View 32 v70,2013-03-09 18:19:00,
2013-03-09 13:27:00,50.0,23.4,29.86,South,180,7.0,7.0,35,0.10,,,0.52,Weather View 32 v70,2013-03-09 18:27:00,
2013-03-09 13:34:00,51.0,24.3,29.86,North,360,0.0,7.0,35,0.09,,,0.53,Weather View 32 v70,2013-03-09 18:34:00,
2013-03-09 13:39:00,51.0,24.3,29.86,South,180,3.0,7.0,35,0.09,,,0.53,Weather View 32 v70,2013-03-09 18:39:00,
2013-03-09 13:44:00,51.0,25.6,29.86,SW,225,2.0,7.0,37,0.07,,,0.53,Weather View 32 v70,2013-03-09 18:44:00,
2013-03-09 13:54:00,51.0,25.6,29.86,South,180,2.0,7.0,37,0.06,,,0.54,Weather View 32 v70,2013-03-09 18:54:00,
2013-03-09 13:59:00,50.0,24.7,29.86,ENE,67,1.0,7.0,37,0.05,,,0.54,Weather View 32 v70,2013-03-09 18:59:00,
2013-03-09 14:04:00,50.0,26.0,29.86,SSE,157,1.0,7.0,39,0.04,,,0.54,Weather View 32 v70,2013-03-09 19:04:00,
2013-03-09 14:14:00,50.0,26.0,29.86,South,180,2.0,7.0,39,0.03,,,0.54,Weather View 32 v70,2013-03-09 19:14:00,
2013-03-09 14:19:00,50.0,26.0,29.86,South,180,3.0,7.0,39,0.03,,,0.54,Weather View 32 v70,2013-03-09 19:19:00,
2013-03-09 14:24:00,49.0,26.3,29.87,SE,135,1.0,8.0,41,0.03,,,0.55,Weather View 32 v70,2013-03-09 19:24:00,
2013-03-09 14:34:00,50.0,26.0,29.86,SE,135,4.0,8.0,39,0.02,,,0.55,Weather View 32 v70,2013-03-09 19:34:00,
2013-03-09 14:39:00,48.0,26.0,29.86,South,180,3.0,8.0,42,0.02,,,0.55,Weather View 32 v70,2013-03-09 19:39:00,
2013-03-09 14:44:00,48.0,26.5,29.88,East,90,0.0,8.0,43,0.02,,,0.55,Weather View 32 v70,2013-03-09 19:44:00,
2013-03-09 14:49:00,49.0,26.9,29.88,South,180,3.0,8.0,42,0.02,,,0.55,Weather View 32 v70,2013-03-09 19:49:00,
2013-03-09 14:59:00,49.0,27.4,29.88,East,90,1.0,8.0,43,0.01,,,0.55,Weather View 32 v70,2013-03-09 19:59:00,
2013-03-09 15:04:00,48.0,26.5,29.88,East,90,2.0,8.0,43,0.01,,,0.55,Weather View 32 v70,2013-03-09 20:04:00,
2013-03-09 15:09:00,49.0,26.9,29.88,East,90,6.0,8.0,42,0.01,,,0.55,Weather View 32 v70,2013-03-09 20:09:00,
2013-03-09 15:19:00,49.0,26.9,29.88,East,90,0.0,8.0,42,0.01,,,0.55,Weather View 32 v70,2013-03-09 20:19:00,
2013-03-09 15:24:00,48.0,27.6,29.88,SE,135,7.0,8.0,45,0.00,,,0.55,Weather View 32 v70,2013-03-09 20:24:00,
2013-03-09 15:29:00,48.0,28.7,29.88,South,180,4.0,9.0,47,0.00,,,0.55,Weather View 32 v70,2013-03-09 20:29:00,
2013-03-09 15:39:00,47.0,28.8,29.89,SSE,157,0.0,9.0,49,0.00,,,0.55,Weather View 32 v70,2013-03-09 20:39:00,
2013-03-09 15:44:00,46.0,27.9,29.89,East,90,3.0,9.0,49,0.00,,,0.55,Weather View 32 v70,2013-03-09 20:44:00,
2013-03-09 15:49:00,47.0,28.8,29.89,South,180,0.0,9.0,49,0.00,,,0.55,Weather View 32 v70,2013-03-09 20:49:00,
2013-03-09 15:59:00,45.0,28.4,29.90,SE,135,2.0,9.0,52,0.00,,,0.55,Weather View 32 v70,2013-03-09 20:59:00,
2013-03-09 16:04:00,45.0,28.9,29.90,South,180,4.0,9.0,53,0.00,,,0.55,Weather View 32 v70,2013-03-09 21:04:00,
2013-03-09 16:09:00,44.0,28.4,29.90,SE,135,6.0,9.0,54,0.00,,,0.55,Weather View 32 v70,2013-03-09 21:09:00,
2013-03-09 16:19:00,43.0,27.9,29.91,SSW,202,1.0,9.0,55,0.00,,,0.55,Weather View 32 v70,2013-03-09 21:19:00,
2013-03-09 16:24:00,43.0,28.4,29.91,SE,135,3.0,9.0,56,0.00,,,0.55,Weather View 32 v70,2013-03-09 21:24:00,
2013-03-09 16:29:00,43.0,29.2,29.91,SE,135,0.0,8.0,58,0.00,,,0.55,Weather View 32 v70,2013-03-09 21:29:00,
2013-03-09 16:34:00,42.0,28.7,29.91,South,180,3.0,8.0,59,0.00,,,0.55,Weather View 32 v70,2013-03-09 21:34:00,
2013-03-09 16:44:00,41.0,29.0,29.92,South,180,1.0,8.0,62,0.00,,,0.55,Weather View 32 v70,2013-03-09 21:44:00,
2013-03-09 16:49:00,41.0,29.4,29.92,SW,225,2.0,8.0,63,0.00,,,0.55,Weather View 32 v70,2013-03-09 21:49:00,
2013-03-09 16:54:00,40.0,28.8,29.93,ESE,112,2.0,8.0,64,0.00,,,0.55,Weather View 32 v70,2013-03-09 21:54:00,
2013-03-09 17:04:00,39.0,28.6,29.93,North,360,0.0,8.0,66,0.00,,,0.55,Weather View 32 v70,2013-03-09 22:04:00,
2013-03-09 17:09:00,39.0,29.0,29.93,North,360,0.0,8.0,67,0.00,,,0.55,Weather View 32 v70,2013-03-09 22:09:00,
2013-03-09 17:14:00,39.0,29.3,29.94,West,270,0.0,6.0,68,0.00,,,0.55,Weather View 32 v70,2013-03-09 22:14:00,
2013-03-09 17:24:00,38.0,29.1,29.95,SE,135,0.0,6.0,70,0.00,,,0.55,Weather View 32 v70,2013-03-09 22:24:00,
2013-03-09 17:30:00,37.0,28.8,29.95,South,180,1.0,6.0,72,0.00,,,0.55,Weather View 32 v70,2013-03-09 22:30:00,
2013-03-09 17:39:00,36.0,27.8,29.96,East,90,0.0,6.0,72,0.00,,,0.55,Weather View 32 v70,2013-03-09 22:39:00,
2013-03-09 17:49:00,35.0,27.9,29.96,NE,45,0.0,6.0,75,0.00,,,0.55,Weather View 32 v70,2013-03-09 22:49:00,
2013-03-09 17:54:00,35.0,28.8,29.97,NE,45,0.0,6.0,78,0.00,,,0.55,Weather View 32 v70,2013-03-09 22:54:00,
2013-03-09 17:59:00,34.0,27.9,29.97,NE,45,0.0,6.0,78,0.00,,,0.55,Weather View 32 v70,2013-03-09 22:59:00,
2013-03-09 18:09:00,34.0,28.8,29.98,NE,45,0.0,6.0,81,0.00,,,0.55,Weather View 32 v70,2013-03-09 23:09:00,
2013-03-09 18:14:00,33.0,27.8,29.98,NE,45,0.0,6.0,81,0.00,,,0.55,Weather View 32 v70,2013-03-09 23:14:00,
2013-03-09 18:19:00,33.0,28.1,29.98,NE,45,0.0,6.0,82,0.00,,,0.55,Weather View 32 v70,2013-03-09 23:19:00,
2013-03-09 18:24:00,32.0,27.7,29.98,NE,45,0.0,4.0,84,0.00,,,0.55,Weather View 32 v70,2013-03-09 23:24:00,
2013-03-09 18:29:00,32.0,28.0,29.98,NE,45,0.0,3.0,85,0.00,,,0.55,Weather View 32 v70,2013-03-09 23:29:00,
2013-03-09 18:34:00,31.0,27.0,29.99,NE,45,0.0,3.0,85,0.00,,,0.55,Weather View 32 v70,2013-03-09 23:34:00,
2013-03-09 18:39:00,30.0,27.2,29.99,NE,45,0.0,3.0,89,0.00,,,0.55,Weather View 32 v70,2013-03-09 23:39:00,
2013-03-09 18:44:00,30.0,28.0,30.00,NE,45,0.0,3.0,92,0.00,,,0.55,Weather View 32 v70,2013-03-09 23:44:00,
2013-03-09 18:49:00,30.0,27.7,30.00,NE,45,0.0,1.0,91,0.00,,,0.55,Weather View 32 v70,2013-03-09 23:49:00,
2013-03-09 18:54:00,29.0,26.7,30.00,NE,45,0.0,1.0,91,0.00,,,0.55,Weather View 32 v70,2013-03-09 23:54:00,
2013-03-09 18:59:00,29.0,27.5,30.00,NE,45,0.0,1.0,94,0.00,,,0.55,Weather View 32 v70,2013-03-09 23:59:00,
2013-03-09 19:04:00,29.0,27.2,30.01,NE,45,0.0,1.0,93,0.00,,,0.55,Weather View 32 v70,2013-03-10 00:04:00,
2013-03-09 19:14:00,28.0,26.5,30.01,NE,45,0.0,1.0,94,0.00,,,0.55,Weather View 32 v70,2013-03-10 00:14:00,
2013-03-09 19:19:00,28.0,26.5,30.01,NE,45,0.0,1.0,94,0.00,,,0.55,Weather View 32 v70,2013-03-10 00:19:00,
2013-03-09 19:24:00,28.0,26.5,30.02,NE,45,0.0,1.0,94,0.00,,,0.55,Weather View 32 v70,2013-03-10 00:24:00,
2013-03-09 19:29:00,28.0,26.5,30.02,NE,45,0.0,0.0,94,0.00,,,0.55,Weather View 32 v70,2013-03-10 00:29:00,
2013-03-09 19:34:00,27.0,25.5,30.01,NE,45,0.0,0.0,94,0.00,,,0.55,Weather View 32 v70,2013-03-10 00:34:00,
2013-03-09 19:39:00,27.0,25.5,30.01,NE,45,0.0,0.0,94,0.00,,,0.55,Weather View 32 v70,2013-03-10 00:39:00,
2013-03-09 19:44:00,27.0,25.5,30.02,NE,45,0.0,0.0,94,0.00,,,0.55,Weather View 32 v70,2013-03-10 00:44:00,
2013-03-09 19:49:00,27.0,25.5,30.02,NE,45,0.0,0.0,94,0.00,,,0.55,Weather View 32 v70,2013-03-10 00:49:00,
2013-03-09 19:54:00,27.0,25.5,30.02,NE,45,0.0,0.0,94,0.00,,,0.55,Weather View 32 v70,2013-03-10 00:54:00,
2013-03-09 19:59:00,27.0,25.5,30.02,NE,45,0.0,0.0,94,0.00,,,0.55,Weather View 32 v70,2013-03-10 00:59:00,
2013-03-09 20:04:00,28.0,26.5,30.02,NE,45,0.0,0.0,94,0.00,,,0.55,Weather View 32 v70,2013-03-10 01:04:00,
2013-03-09 20:09:00,28.0,26.5,30.02,NE,45,0.0,0.0,94,0.00,,,0.55,Weather View 32 v70,2013-03-10 01:09:00,
2013-03-09 20:14:00,28.0,26.5,30.02,NE,45,0.0,0.0,94,0.00,,,0.55,Weather View 32 v70,2013-03-10 01:14:00,
2013-03-09 20:19:00,27.0,25.5,30.02,NE,45,0.0,0.0,94,0.00,,,0.55,Weather View 32 v70,2013-03-10 01:19:00,
2013-03-09 20:24:00,27.0,25.5,30.03,NE,45,0.0,0.0,94,0.00,,,0.55,Weather View 32 v70,2013-03-10 01:24:00,
2013-03-09 20:29:00,27.0,25.5,30.03,NE,45,0.0,0.0,94,0.00,,,0.55,Weather View 32 v70,2013-03-10 01:29:00,
2013-03-09 20:34:00,27.0,25.5,30.03,NE,45,0.0,0.0,94,0.00,,,0.55,Weather View 32 v70,2013-03-10 01:34:00,
2013-03-09 20:39:00,26.0,24.5,30.03,NE,45,0.0,0.0,94,0.00,,,0.55,Weather View 32 v70,2013-03-10 01:39:00,
2013-03-09 20:44:00,26.0,24.5,30.04,NE,45,0.0,0.0,94,0.00,,,0.55,Weather View 32 v70,2013-03-10 01:44:00,
2013-03-09 20:49:00,26.0,24.5,30.04,NE,45,0.0,0.0,94,0.00,,,0.55,Weather View 32 v70,2013-03-10 01:49:00,
2013-03-09 20:54:00,26.0,24.5,30.04,NE,45,0.0,0.0,94,0.00,,,0.55,Weather View 32 v70,2013-03-10 01:54:00,
2013-03-09 20:59:00,27.0,25.5,30.04,NE,45,0.0,0.0,94,0.00,,,0.55,Weather View 32 v70,2013-03-10 01:59:00,
2013-03-09 21:04:00,27.0,25.5,30.04,NE,45,0.0,0.0,94,0.00,,,0.55,Weather View 32 v70,2013-03-10 02:04:00,
2013-03-09 21:09:00,27.0,25.5,30.04,NE,45,0.0,0.0,94,0.00,,,0.55,Weather View 32 v70,2013-03-10 02:09:00,
2013-03-09 21:14:00,27.0,25.5,30.04,NE,45,0.0,0.0,94,0.00,,,0.55,Weather View 32 v70,2013-03-10 02:14:00,
2013-03-09 21:19:00,27.0,25.5,30.04,NE,45,0.0,0.0,94,0.00,,,0.55,Weather View 32 v70,2013-03-10 02:19:00,
2013-03-09 21:24:00,26.0,24.5,30.04,NE,45,0.0,0.0,94,0.00,,,0.55,Weather View 32 v70,2013-03-10 02:24:00,
2013-03-09 21:29:00,26.0,24.5,30.04,NE,45,0.0,0.0,94,0.00,,,0.55,Weather View 32 v70,2013-03-10 02:29:00,
2013-03-09 21:39:00,25.0,23.5,30.04,NE,45,0.0,0.0,94,0.00,,,0.55,Weather View 32 v70,2013-03-10 02:39:00,
2013-03-09 21:44:00,26.0,24.5,30.04,NE,45,0.0,0.0,94,0.00,,,0.55,Weather View 32 v70,2013-03-10 02:44:00,
2013-03-09 21:49:00,26.0,24.5,30.04,NE,45,0.0,0.0,94,0.00,,,0.55,Weather View 32 v70,2013-03-10 02:49:00,
2013-03-09 21:54:00,26.0,24.5,30.04,NE,45,0.0,0.0,94,0.00,,,0.55,Weather View 32 v70,2013-03-10 02:54:00,
2013-03-09 21:59:00,26.0,24.5,30.04,NE,45,0.0,0.0,94,0.00,,,0.55,Weather View 32 v70,2013-03-10 02:59:00,
2013-03-09 22:04:00,25.0,23.5,30.04,NE,45,0.0,0.0,94,0.00,,,0.55,Weather View 32 v70,2013-03-10 03:04:00,
2013-03-09 22:09:00,25.0,23.5,30.04,NE,45,0.0,0.0,94,0.00,,,0.55,Weather View 32 v70,2013-03-10 03:09:00,
2013-03-09 22:14:00,25.0,23.5,30.04,NE,45,0.0,0.0,94,0.00,,,0.55,Weather View 32 v70,2013-03-10 03:14:00,
2013-03-09 22:19:00,25.0,23.5,30.04,NE,45,0.0,0.0,94,0.00,,,0.55,Weather View 32 v70,2013-03-10 03:19:00,
2013-03-09 22:24:00,25.0,23.5,30.04,NE,45,0.0,0.0,94,0.00,,,0.55,Weather View 32 v70,2013-03-10 03:24:00,
2013-03-09 22:29:00,26.0,24.5,30.04,NE,45,0.0,1.0,94,0.00,,,0.55,Weather View 32 v70,2013-03-10 03:29:00,
2013-03-09 22:34:00,26.0,24.5,30.03,NE,45,0.0,1.0,94,0.00,,,0.55,Weather View 32 v70,2013-03-10 03:34:00,
2013-03-09 22:39:00,26.0,24.5,30.03,NE,45,0.0,1.0,94,0.00,,,0.55,Weather View 32 v70,2013-03-10 03:39:00,
2013-03-09 22:44:00,26.0,24.5,30.04,NE,45,0.0,1.0,94,0.00,,,0.55,Weather View 32 v70,2013-03-10 03:44:00,
2013-03-09 22:49:00,26.0,24.5,30.04,NE,45,0.0,1.0,94,0.00,,,0.55,Weather View 32 v70,2013-03-10 03:49:00,
2013-03-09 22:54:00,26.0,24.5,30.04,NE,45,0.0,1.0,94,0.00,,,0.55,Weather View 32 v70,2013-03-10 03:54:00,
2013-03-09 22:59:00,26.0,24.5,30.04,NE,45,0.0,1.0,94,0.00,,,0.55,Weather View 32 v70,2013-03-10 03:59:00,
2013-03-09 23:04:00,26.0,24.5,30.04,NE,45,0.0,1.0,94,0.00,,,0.55,Weather View 32 v70,2013-03-10 04:04:00,
2013-03-09 23:09:00,26.0,24.5,30.04,NE,45,0.0,1.0,94,0.00,,,0.55,Weather View 32 v70,2013-03-10 04:09:00,
2013-03-09 23:14:00,25.0,23.5,30.04,NE,45,0.0,1.0,94,0.00,,,0.55,Weather View 32 v70,2013-03-10 04:14:00,
2013-03-09 23:19:00,25.0,23.5,30.04,NE,45,0.0,1.0,94,0.00,,,0.55,Weather View 32 v70,2013-03-10 04:19:00,
2013-03-09 23:24:00,25.0,23.5,30.04,NE,45,0.0,1.0,94,0.00,,,0.55,Weather View 32 v70,2013-03-10 04:24:00,
2013-03-09 23:29:00,26.0,24.5,30.04,NE,45,0.0,0.0,94,0.00,,,0.55,Weather View 32 v70,2013-03-10 04:29:00,
2013-03-09 23:34:00,25.0,23.5,30.04,NE,45,0.0,0.0,94,0.00,,,0.55,Weather View 32 v70,2013-03-10 04:34:00,
2013-03-09 23:39:00,26.0,24.5,30.04,NE,45,0.0,0.0,94,0.00,,,0.55,Weather View 32 v70,2013-03-10 04:39:00,
2013-03-09 23:44:00,26.0,24.5,30.04,NE,45,0.0,0.0,94,0.00,,,0.55,Weather View 32 v70,2013-03-10 04:44:00,
2013-03-09 23:49:00,26.0,24.5,30.04,NE,45,0.0,0.0,94,0.00,,,0.55,Weather View 32 v70,2013-03-10 04:49:00,
2013-03-09 23:54:00,26.0,24.5,30.04,NE,45,0.0,1.0,94,0.00,,,0.55,Weather View 32 v70,2013-03-10 04:54:00,
2013-03-09 23:59:00,26.0,24.5,30.04,NW,315,0.0,2.0,94,0.00,,,0.00,Weather View 32 v70,2013-03-10 04:59:00,